Terug naar catalogus

MSG 1 DEB

COOLER COVER

ActiefGEO
NORAD 39998·DEBRIS·🇪🇺 EU

Gelanceerd Aug 28, 2002 vanaf Guiana Space Centre

Loading…

TLE

VersSource: Space-Track

Epoch: Sep 14, 2026, 13:25 UTC

1 39998U 02040E   26257.55948005 -.00000009  00000-0  00000-0 0  9992
2 39998  12.5082  14.3026 0009594 204.1883 192.0269  1.01194709 18748

Volg MSG 1 DEB in realtime met AllMySat

Download on the App Store